Time,TemperatureF,DewpointF,PressureIn,WindDirection,WindDirectionDegrees,WindSpeedMPH,WindSpeedGustMPH,Humidity,HourlyPrecipIn,Conditions,Clouds,dailyrainin,SoftwareType,DateUTC
2013-07-11 00:01:00,69.0,68.0,-100.00,West,270,1.0,2.0,96,-99.99,,,-99.99,,2013-07-11 04:01:00,
2013-07-11 00:42:00,67.0,66.0,-100.00,WNW,285,0.0,1.0,97,-99.99,,,-99.99,,2013-07-11 04:42:00,
2013-07-11 01:02:00,67.0,66.0,-100.00,North,10,0.0,2.0,97,-99.99,,,-99.99,,2013-07-11 05:02:00,
2013-07-11 01:12:00,67.0,66.0,-100.00,ENE,65,1.0,1.0,97,-99.99,,,-99.99,,2013-07-11 05:12:00,
2013-07-11 01:43:00,67.0,66.0,-100.00,NNE,30,1.0,2.0,98,-99.99,,,-99.99,,2013-07-11 05:43:00,
2013-07-11 02:01:00,66.0,66.0,-100.00,NE,35,1.0,1.0,98,-99.99,,,-99.99,,2013-07-11 06:01:00,
2013-07-11 02:12:00,66.0,66.0,-100.00,NNE,25,3.0,9.0,99,-99.99,,,-99.99,,2013-07-11 06:12:00,
2013-07-11 02:22:00,67.0,66.0,-100.00,North,350,2.0,7.0,99,-99.99,,,-99.99,,2013-07-11 06:22:00,
2013-07-11 02:32:00,67.0,66.0,-100.00,North,0,1.0,4.0,99,-99.99,,,-99.99,,2013-07-11 06:32:00,
2013-07-11 02:43:00,67.0,66.0,-100.00,NNE,15,2.0,3.0,99,-99.99,,,-99.99,,2013-07-11 06:43:00,
2013-07-11 02:52:00,67.0,66.0,-100.00,NNE,20,2.0,4.0,99,-99.99,,,-99.99,,2013-07-11 06:52:00,
2013-07-11 03:02:00,67.0,66.0,-100.00,NE,45,4.0,6.0,99,-99.99,,,-99.99,,2013-07-11 07:02:00,
2013-07-11 03:12:00,66.0,66.0,-100.00,NNE,30,4.0,9.0,99,-99.99,,,-99.99,,2013-07-11 07:12:00,
2013-07-11 03:32:00,66.0,65.0,-100.00,NE,45,5.0,9.0,97,-99.99,,,-99.99,,2013-07-11 07:32:00,
2013-07-11 03:45:00,65.0,64.0,-100.00,NNE,20,6.0,9.0,97,-99.99,,,-99.99,,2013-07-11 07:45:00,
2013-07-11 03:53:00,65.0,64.0,-100.00,NNE,25,4.0,11.0,97,-99.99,,,-99.99,,2013-07-11 07:53:00,
2013-07-11 04:02:00,64.0,62.0,-100.00,NE,40,6.0,9.0,94,-99.99,,,-99.99,,2013-07-11 08:02:00,
2013-07-11 04:12:00,64.0,61.0,-100.00,NNE,25,6.0,12.0,90,-99.99,,,-99.99,,2013-07-11 08:12:00,
2013-07-11 04:34:00,64.0,58.0,-100.00,NE,45,7.0,11.0,82,-99.99,,,-99.99,,2013-07-11 08:34:00,
2013-07-11 04:43:00,64.0,57.0,-100.00,NE,45,6.0,9.0,79,-99.99,,,-99.99,,2013-07-11 08:43:00,
2013-07-11 05:12:00,63.0,55.0,-100.00,NNE,20,5.0,11.0,75,-99.99,,,-99.99,,2013-07-11 09:12:00,
2013-07-11 05:33:00,63.0,55.0,-100.00,ENE,60,5.0,9.0,77,-99.99,,,-99.99,,2013-07-11 09:33:00,
2013-07-11 05:43:00,63.0,55.0,-100.00,NNE,20,6.0,9.0,77,-99.99,,,-99.99,,2013-07-11 09:43:00,
2013-07-11 06:01:00,63.0,55.0,-100.00,NNE,30,6.0,9.0,77,-99.99,,,-99.99,,2013-07-11 10:01:00,
2013-07-11 06:12:00,63.0,55.0,-100.00,NNE,20,4.0,9.0,77,-99.99,,,-99.99,,2013-07-11 10:12:00,
2013-07-11 06:43:00,62.0,55.0,-100.00,NNE,25,4.0,7.0,78,-99.99,,,-99.99,,2013-07-11 10:43:00,
2013-07-11 07:02:00,62.0,55.0,-100.00,NNE,25,4.0,6.0,78,-99.99,,,-99.99,,2013-07-11 11:02:00,
2013-07-11 08:12:00,61.0,57.0,-100.00,NNE,25,6.0,9.0,85,-99.99,,,-99.99,,2013-07-11 12:12:00,
2013-07-11 09:02:00,64.0,57.0,-100.00,NE,50,6.0,14.0,80,-99.99,,,-99.99,,2013-07-11 13:02:00,
2013-07-11 09:23:00,64.0,57.0,-100.00,NE,55,8.0,12.0,77,-99.99,,,-99.99,,2013-07-11 13:23:00,
2013-07-11 09:34:00,65.0,57.0,-100.00,NE,45,6.0,12.0,77,-99.99,,,-99.99,,2013-07-11 13:34:00,
2013-07-11 09:45:00,65.0,57.0,-100.00,NE,55,7.0,11.0,75,-99.99,,,-99.99,,2013-07-11 13:45:00,
2013-07-11 10:05:00,67.0,58.0,-100.00,NE,45,6.0,12.0,73,-99.99,,,-99.99,,2013-07-11 14:05:00,
2013-07-11 10:15:00,67.0,58.0,-100.00,NNE,25,7.0,11.0,72,-99.99,,,-99.99,,2013-07-11 14:15:00,
2013-07-11 10:35:00,68.0,59.0,-100.00,NNE,20,7.0,11.0,72,-99.99,,,-99.99,,2013-07-11 14:35:00,
2013-07-11 10:45:00,70.0,59.0,-100.00,NNE,30,7.0,11.0,69,-99.99,,,-99.99,,2013-07-11 14:45:00,
2013-07-11 10:54:00,71.0,60.0,-100.00,NNE,20,6.0,12.0,68,-99.99,,,-99.99,,2013-07-11 14:54:00,
2013-07-11 11:05:00,71.0,59.0,-100.00,NNE,25,8.0,13.0,67,-99.99,,,-99.99,,2013-07-11 15:05:00,
2013-07-11 12:06:00,72.0,62.0,-100.00,North,0,7.0,16.0,70,-99.99,,,-99.99,,2013-07-11 16:06:00,
2013-07-11 12:15:00,71.0,61.0,-100.00,NNE,25,9.0,16.0,71,-99.99,,,-99.99,,2013-07-11 16:15:00,
2013-07-11 14:14:00,75.0,63.0,-100.00,NNE,20,9.0,20.0,66,-99.99,,,-99.99,,2013-07-11 18:14:00,
2013-07-11 14:24:00,75.0,62.0,-100.00,NE,55,7.0,17.0,65,-99.99,,,-99.99,,2013-07-11 18:24:00,
2013-07-11 14:35:00,74.0,61.0,-100.00,NE,45,6.0,13.0,65,-99.99,,,-99.99,,2013-07-11 18:35:00,
2013-07-11 14:46:00,74.0,61.0,-100.00,NNE,20,11.0,17.0,64,-99.99,,,-99.99,,2013-07-11 18:46:00,
2013-07-11 15:04:00,73.0,61.0,-100.00,NNE,20,11.0,19.0,67,-99.99,,,-99.99,,2013-07-11 19:04:00,
2013-07-11 15:24:00,74.0,61.0,-100.00,NE,35,10.0,21.0,64,-99.99,,,-99.99,,2013-07-11 19:24:00,
2013-07-11 16:06:00,72.0,59.0,-100.00,NE,55,9.0,21.0,64,-99.99,,,-99.99,,2013-07-11 20:06:00,
2013-07-11 16:13:00,74.0,61.0,-100.00,NNE,20,9.0,18.0,63,-99.99,,,-99.99,,2013-07-11 20:13:00,
2013-07-11 17:05:00,74.0,59.0,-100.00,NNE,25,12.0,21.0,59,-99.99,,,-99.99,,2013-07-11 21:05:00,
2013-07-11 17:24:00,74.0,59.0,-100.00,NE,45,10.0,17.0,58,-99.99,,,-99.99,,2013-07-11 21:24:00,
2013-07-11 17:36:00,75.0,58.0,-100.00,NNE,15,9.0,19.0,57,-99.99,,,-99.99,,2013-07-11 21:36:00,
2013-07-11 17:45:00,74.0,57.0,-100.00,NNE,25,10.0,17.0,56,-99.99,,,-99.99,,2013-07-11 21:45:00,
2013-07-11 18:05:00,75.0,58.0,-100.00,NNE,25,9.0,16.0,56,-99.99,,,-99.99,,2013-07-11 22:05:00,
2013-07-11 18:25:00,75.0,58.0,-100.00,NNE,25,10.0,16.0,56,-99.99,,,-99.99,,2013-07-11 22:25:00,
2013-07-11 19:25:00,73.0,55.0,-100.00,NNE,20,9.0,15.0,54,-99.99,,,-99.99,,2013-07-11 23:25:00,
2013-07-11 19:46:00,73.0,56.0,-100.00,NE,35,7.0,13.0,56,-99.99,,,-99.99,,2013-07-11 23:46:00,
2013-07-11 20:05:00,72.0,56.0,-100.00,NNE,30,7.0,16.0,57,-99.99,,,-99.99,,2013-07-12 00:05:00,
2013-07-11 20:14:00,71.0,55.0,-100.00,NNE,20,8.0,12.0,57,-99.99,,,-99.99,,2013-07-12 00:14:00,
2013-07-11 20:25:00,71.0,55.0,-100.00,NE,45,6.0,14.0,58,-99.99,,,-99.99,,2013-07-12 00:25:00,
2013-07-11 20:36:00,70.0,55.0,-100.00,NNE,30,6.0,9.0,59,-99.99,,,-99.99,,2013-07-12 00:36:00,
2013-07-11 20:44:00,69.0,55.0,-100.00,NNE,25,7.0,14.0,60,-99.99,,,-99.99,,2013-07-12 00:44:00,
2013-07-11 20:55:00,69.0,55.0,-100.00,NNE,30,6.0,11.0,62,-99.99,,,-99.99,,2013-07-12 00:55:00,
2013-07-11 21:05:00,68.0,54.0,-100.00,NE,35,4.0,9.0,63,-99.99,,,-99.99,,2013-07-12 01:05:00,
2013-07-11 21:46:00,64.0,54.0,-100.00,NE,50,4.0,8.0,71,-99.99,,,-99.99,,2013-07-12 01:46:00,
2013-07-11 22:07:00,64.0,54.0,-100.00,NE,45,3.0,6.0,72,-99.99,,,-99.99,,2013-07-12 02:07:00,